Location: Krakow
(50.0830°N, 19.9170°E)
Time: 05:33:30
(UTC+02:00)

Tiros 1 - Pass Details

Date: 10 February 2023
Orbit: 627 x 662 km, 48.4° (Epoch: 25 March)

Event Time Altitude Azimuth Distance (km) Brightness Sun altitude
Rises 20:29:34 0° 200° (SSW) 2,899 - -35.3°
Reaches altitude 10° 20:32:34 10° 180° (S) 1,994 - -35.8°
Maximum altitude 20:35:28 17° 141° (SE) 1,600 - -36.2°
Drops below altitude 10° 20:38:23 10° 101° (E) 2,002 - -36.6°
Sets 20:41:24 0° 81° (E) 2,915 - -37.0°
